Temp
3 3 3 3 3 3 3 3 3 3 3 4 4 4 4 4 4 4 3 4 5 5 7 6 7 8 8 10 10 8 8 7 8 8 8 8 8 10 9 11 10 10 10 10 11 9 9 14 13 11 12 11 12 12
3 3 3 2 2 3 3 3 3 3 3 3 4 3 4 4 3 3 4 3 3 5 5 4 5 5 7 8 9 8 8 8 9 9 8 9 7 8 9 9 12 9 11 11 10 12 14 13 11 12 12 11 10 9
3 2 2 2 2 2 2 2 2 3 3 3 3 3 3 3 3 3 3 3 4 5 5 4 6 5 5 5 6 8 7 9 8 8 8 8 6 8 8 10 11 11 12 10 9 11 12 12 10 10 8 7 8 9
2 2 2 2 2 2 2 2 2 2 3 3 3 3 3 4 3 3 3 3 4 4 3 5 4 5 5 5 5 6 6 6 7 8 5 5 5 8 8 9 8 10 10 9 9 11 9 8 7 6 5 4 4 4
2 2 2 1 1 1 2 2 2 2 2 3 3 3 3 4 3 3 3 3 3 4 4 6 6 5 5 5 5 5 6 7 6 4 4 5 6 6 7 8 8 11 9 7 6 6 3 3 4 4 2 2 3 3
2 2 1 1 2 2 2 2 2 2 2 3 3 3 3 4 4 4 3 3 3 2 4 4 6 6 5 4 5 5 5 6 5 3 4 5 7 6 6 7 11 10 9 7 3 2 2 2 3 3 2 2 1 1
2 2 2 2 2 2 2 2 2 2 2 3 3 4 4 4 4 4 5 4 3 2 2 4 6 6 4 3 3 3 4 3 3 3 3 5 6 4 5 7 11 8 6 4 4 1 1 1 0 2 3 2 1 1
2 1 1 1 2 2 2 2 2 2 2 2 3 3 3 3 3 4 3 4 3 2 3 4 5 5 5 6 3 3 3 3 3 4 4 5 6 5 6 9 8 5 2 3 2 1 0 -0 1 2 4 4 2 2
1 1 1 1 1 1 1 2 2 2 2 2 2 3 3 3 2 3 3 3 3 4 4 4 5 7 5 6 4 3 4 4 4 4 6 6 7 6 8 5 3 1 -0 -1 -1 0 -0 -0 0 0 1 2 1 1
1 1 1 1 1 1 1 1 1 1 1 2 2 2 2 2 3 3 3 3 3 2 3 4 8 7 6 6 5 5 4 5 6 6 5 5 8 10 6 4 1 -1 -2 -2 -2 -2 -2 -1 -1 -1 -1 -1 -1 -2
0 0 0 0 0 0 0 0 1 1 1 1 2 2 2 2 2 3 3 3 3 4 3 4 7 7 6 6 7 7 6 6 6 7 6 7 9 7 4 2 1 -1 -2 -3 -3 -3 -3 -2 -2 -2 -3 -3 -3 -4
-1 -1 -0 -0 -0 0 0 -0 -0 0 1 1 1 2 2 2 2 3 4 5 4 6 5 4 5 5 4 6 5 4 6 5 6 7 5 7 9 6 3 1 -0 -2 -3 -3 -4 -4 -4 -3 -4 -4 -4 -4 -5 -5
-1 -1 -1 -1 -1 -1 -1 -1 -0 -0 0 1 2 2 2 3 4 5 5 5 5 6 5 4 3 5 4 5 4 5 5 6 7 6 7 10 7 4 2 1 -1 -3 -3 -4 -4 -5 -5 -5 -5 -4 -5 -5 -5 -5
-2 -2 -1 -1 -1 -1 -1 -1 -1 -0 -0 1 2 3 4 4 6 7 8 8 8 6 5 5 4 4 4 5 5 5 7 7 6 6 8 10 7 3 1 -1 -1 -3 -3 -4 -5 -5 -5 -5 -5 -5 -5 -6 -6 -6
-2 -2 -1 -1 -1 -1 -1 -0 -0 -0 -0 1 2 4 5 7 7 6 7 6 5 6 6 4 4 5 5 5 6 6 6 6 7 9 10 7 3 2 -1 -1 -2 -2 -3 -3 -4 -5 -5 -5 -5 -5 -6 -6 -6 -7
-2 -2 -2 -1 -2 -1 -1 -1 -0 -1 -1 1 2 3 5 5 5 4 5 6 6 6 5 5 6 6 6 7 6 6 7 8 10 10 7 4 2 1 -1 -1 -2 -2 -2 -3 -3 -4 -4 -5 -5 -5 -6 -6 -7 -7
-3 -2 -1 -2 -1 -1 -1 -1 -1 -0 0 1 2 3 4 5 6 6 6 6 6 5 6 6 6 7 8 7 7 8 8 10 9 6 6 5 4 1 -0 -1 -2 -2 -1 -1 -2 -3 -3 -4 -4 -4 -5 -6 -7 -8
-3 -2 -2 -2 -2 -2 -1 -1 -1 0 1 3 4 5 3 5 6 5 5 6 6 5 6 6 8 6 6 7 9 9 9 7 6 6 5 4 3 1 1 1 -1 -1 -1 -2 -3 -3 -3 -3 -3 -4 -5 -5 -6 -6
-2 -3 -3 -2 -2 -2 -1 -1 -0 1 3 5 5 5 5 5 5 5 6 5 7 7 6 6 7 7 9 10 10 9 8 7 5 3 4 3 2 1 0 -0 -1 -1 -2 -2 -2 -2 -2 -3 -3 -4 -4 -4 -5 -5
-2 -2 -2 -3 -3 -2 -1 0 1 3 4 5 5 6 6 6 6 4 5 6 5 3 4 5 7 8 8 9 9 9 8 7 5 4 3 3 2 1 1 -0 0 -1 -2 -2 -2 -3 -3 -3 -4 -4 -4 -4 -5 -5
-2 -2 -3 -3 -3 -3 -1 0 1 3 4 5 5 5 5 6 6 5 4 6 4 4 5 6 8 8 8 6 6 6 6 6 6 7 5 3 2 2 1 1 -0 -1 -1 -1 -2 -2 -2 -2 -3 -4 -6 -5 -6 -6
-2 -2 -3 -3 -3 -2 -1 1 1 2 3 5 6 6 5 4 5 6 7 5 6 7 7 8 9 9 8 6 5 5 5 5 5 5 4 3 3 2 1 0 -0 -1 -1 -1 -1 -2 -2 -3 -4 -5 -6 -7 -7 -8
-3 -3 -3 -3 -2 -2 1 1 1 2 3 4 5 5 5 6 6 6 5 7 7 7 7 8 9 9 8 8 5 5 3 4 4 4 3 3 3 2 1 0 0 -1 -1 -1 -1 -2 -3 -4 -6 -6 -7 -7 -7 -8
-3 -3 -3 -1 -1 -0 1 1 2 4 4 3 3 4 6 6 8 6 6 8 7 7 7 8 8 7 6 5 6 5 4 4 5 4 3 3 3 2 1 0 -0 -0 -0 -1 -2 -3 -5 -5 -7 -7 -7 -7 -7 -8
-3 -3 -2 -2 -1 -1 -0 1 2 3 2 3 3 3 3 3 4 6 6 7 7 6 7 8 7 7 7 8 7 6 4 4 5 4 3 3 3 2 1 0 -0 -1 -1 -3 -3 -4 -5 -6 -6 -6 -7 -7 -7 -7
-3 -2 -2 -1 -0 -1 0 1 2 2 3 3 4 5 4 3 3 5 7 7 7 6 4 4 6 7 7 8 8 6 4 3 4 4 3 2 2 1 1 0 -0 -1 -2 -2 -4 -4 -5 -6 -6 -7 -7 -7 -8 -7
-3 -3 -0 1 1 1 1 2 3 3 3 2 4 4 3 3 4 5 5 3 5 7 6 5 6 7 8 7 6 6 4 3 3 4 3 2 2 2 1 0 0 -0 -2 -3 -4 -4 -5 -5 -6 -6 -6 -7 -8 -8
-2 -0 -2 -1 0 2 1 1 2 2 3 4 4 3 2 4 6 5 3 -0 -1 -0 0 1 3 5 6 6 4 2 2 2 2 2 1 1 1 1 1 1 1 -0 -1 -1 -1 -2 -3 -4 -5 -6 -6 -6 -7 -8
-2 -1 -1 -2 -2 0 1 0 1 3 3 4 4 4 4 4 2 1 -1 -0 -1 -2 -1 -1 -2 1 2 2 2 1 1 1 1 0 0 1 -0 -1 0 0 0 -0 -0 -0 -1 -1 -1 -1 -2 -4 -5 -6 -7 -8
-2 0 -1 -2 -2 -1 1 2 2 0 0 0 0 1 1 2 0 -2 -2 -2 -1 -1 -1 -1 -1 -1 -0 -0 -1 -1 -0 1 2 2 1 1 1 0 1 1 0 0 0 -0 -1 -3 -3 -4 -5 -6 -6 -6 -7 -7
-1 -1 -1 -1 -1 1 1 -1 -1 -0 -0 0 -1 0 2 1 -0 -2 -2 -2 -1 -2 -2 -2 -2 -1 -0 0 -0 -0 -0 -0 1 2 3 3 2 2 2 2 1 1 1 -0 -1 -2 -3 -5 -5 -5 -6 -6 -6 -7
-2 -2 -1 -2 -1 -0 -2 -0 1 0 0 -0 1 -0 -0 -0 0 1 -1 -2 -2 -2 -1 -1 -1 -1 -1 -0 -0 1 1 1 1 2 2 3 3 3 3 2 1 1 1 1 -1 -2 -3 -4 -4 -4 -5 -5 -5 -6
-3 -2 -2 -1 -1 -1 -0 -1 -0 -0 0 0 1 0 0 1 2 2 -2 -3 -2 -1 -1 -0 0 0 0 0 -0 -0 1 1 2 2 2 2 2 3 2 2 2 1 -0 1 0 -0 -2 -3 -4 -4 -4 -5 -5 -6
Height
829 832 833 836 838 839 841 842 845 846 847 847 848 847 847 847 847 850 852 849 851 855 855 857 856 858 861 855 854 864 868 872 870 870 865 865 867 856 857 842 841 842 840 832 823 827 819 785 790 797 784 783 779 773
831 833 835 838 840 841 842 843 846 847 847 848 850 849 851 850 852 852 851 853 855 854 859 859 859 860 863 860 859 865 862 858 859 861 868 864 870 866 857 846 834 842 831 824 824 797 786 791 791 784 781 775 773 778
832 835 836 837 837 839 840 842 844 846 848 849 850 850 851 851 851 852 854 855 857 858 858 861 860 858 863 863 865 864 865 863 862 865 865 867 874 865 857 838 833 825 824 824 820 801 792 789 786 782 780 775 768 764
834 836 839 841 840 841 842 843 844 845 846 848 849 849 849 850 852 852 854 859 860 861 862 860 858 853 859 861 864 865 866 869 868 868 872 875 872 864 855 845 843 832 827 817 813 797 790 794 789 784 776 775 769 765
836 837 840 842 844 844 845 845 848 848 849 850 851 851 851 851 852 852 855 857 859 861 860 857 852 854 857 859 860 861 866 868 869 872 874 872 866 866 855 849 837 823 824 826 814 815 817 799 787 781 772 763 759 757
835 837 839 841 843 845 845 847 850 850 850 850 851 851 851 850 849 853 857 856 855 858 862 857 855 856 857 857 857 859 865 868 869 872 870 865 861 863 854 838 821 824 828 830 828 823 816 803 789 777 761 744 748 752
833 835 837 838 840 842 843 846 849 848 848 849 849 848 847 847 849 850 852 854 854 859 863 859 851 853 854 857 859 865 867 867 870 872 868 862 859 863 849 836 817 827 830 828 824 824 809 798 786 770 760 751 748 750
832 834 836 837 839 840 841 844 847 845 846 847 847 847 847 849 851 853 854 855 858 861 861 856 850 849 852 851 859 864 863 866 867 864 859 854 852 853 839 820 825 832 832 822 824 822 817 806 790 775 761 754 750 749
831 833 835 838 841 841 842 844 845 845 847 848 848 849 851 852 853 853 853 855 857 860 855 854 846 835 850 849 855 860 860 860 859 856 848 849 837 833 819 830 836 837 838 831 827 820 813 802 792 784 773 764 760 759
830 831 833 837 840 839 841 842 845 847 848 849 850 851 852 851 851 853 855 855 855 853 854 848 839 839 845 845 850 853 856 852 844 841 846 842 821 813 826 833 837 838 837 832 824 811 810 804 799 793 788 784 780 778
828 830 833 837 839 840 841 843 846 847 848 850 850 850 852 851 851 852 851 851 849 846 845 842 835 834 843 840 838 843 845 845 838 833 834 824 810 817 829 833 835 836 835 833 831 827 822 814 806 800 797 797 794 793
826 829 832 834 836 837 841 842 846 847 849 849 850 849 850 850 849 848 842 842 843 832 834 836 837 840 844 843 844 848 842 846 834 832 836 815 807 821 828 832 834 834 833 832 830 827 822 817 813 808 806 805 806 806
825 827 830 833 835 839 841 843 845 847 848 849 849 848 846 844 836 832 829 827 825 824 828 833 837 838 844 843 843 842 840 834 830 831 819 800 812 822 827 831 833 834 833 832 831 829 826 823 821 817 814 814 813 815
823 825 827 830 833 836 838 841 843 846 847 847 844 839 833 824 817 804 802 803 810 815 822 826 832 833 836 836 834 835 825 828 828 824 807 796 810 823 828 831 832 834 834 834 833 831 831 829 828 826 824 823 819 820
821 823 824 827 829 832 834 837 840 843 845 842 836 821 812 806 807 808 805 808 814 815 819 826 828 828 828 830 830 826 828 820 815 797 791 805 817 823 828 830 832 834 834 834 834 834 834 834 833 833 833 833 831 830
817 818 818 821 824 827 830 834 838 840 840 836 827 815 809 809 806 811 807 806 811 813 820 821 819 819 819 817 821 818 813 800 789 792 801 812 818 822 826 829 831 832 833 834 835 836 836 837 837 838 839 839 839 840
813 813 812 814 818 822 824 828 830 830 829 821 813 810 810 804 799 800 801 803 808 813 810 813 813 810 809 810 807 804 800 788 792 803 806 810 814 821 824 827 830 831 832 834 835 837 838 839 840 840 842 845 846 847
810 809 809 811 814 817 818 820 822 819 814 806 802 799 805 800 797 799 799 801 803 806 806 805 804 810 806 802 792 788 791 799 802 803 807 811 814 819 822 824 827 829 831 834 836 838 839 840 841 843 845 848 850 851
806 808 808 809 809 812 811 810 811 803 797 793 795 797 796 794 795 798 798 799 798 799 801 801 800 795 787 785 784 787 791 795 801 806 808 811 814 817 821 824 827 829 832 834 835 836 838 840 842 845 847 849 851 853
803 805 807 807 809 809 805 798 799 795 787 787 789 788 789 785 786 791 795 796 797 800 799 794 788 783 784 783 784 784 788 793 798 803 808 810 813 816 819 823 825 828 831 833 835 836 839 841 844 846 847 849 851 854
801 802 804 805 806 807 803 789 787 782 783 782 779 782 778 779 780 783 787 788 791 789 786 783 779 780 782 784 786 786 789 790 792 793 798 805 809 812 816 820 823 826 828 831 833 835 837 839 842 845 847 850 852 855
795 798 801 803 805 802 794 785 780 776 777 772 773 773 773 771 773 773 774 777 770 770 772 773 772 775 777 779 781 783 784 788 790 791 795 800 805 808 811 815 819 822 825 827 830 833 835 838 841 844 847 850 853 855
792 794 796 797 796 791 779 778 776 770 767 762 758 756 755 758 761 764 762 757 756 758 761 763 764 767 769 771 775 777 780 783 786 788 791 796 800 804 807 811 814 817 820 824 827 830 833 836 839 842 846 849 852 855
787 788 788 786 782 773 771 770 766 759 756 756 755 754 743 744 745 748 744 742 745 749 752 753 756 760 766 768 768 770 773 777 781 784 787 791 795 799 802 806 810 813 816 820 823 827 830 834 837 841 844 846 850 853
780 781 780 775 769 768 764 759 756 756 756 751 755 754 745 749 743 736 731 728 732 737 738 742 746 749 752 752 756 761 765 768 772 776 781 785 790 795 799 802 806 808 811 815 819 822 826 830 834 837 840 843 846 850
768 766 766 762 758 761 757 754 750 750 748 751 746 742 745 748 745 729 717 717 719 722 728 731 735 738 741 742 746 753 756 761 767 770 774 778 781 786 790 794 798 803 805 808 812 816 821 825 829 833 836 840 843 846
758 756 751 751 749 748 748 744 741 742 745 745 741 742 747 742 731 721 718 720 716 716 718 721 725 729 729 734 740 744 748 752 756 761 767 771 776 780 784 786 789 794 799 802 806 809 813 818 823 828 832 836 838 841
746 742 746 747 747 743 744 742 739 737 735 732 734 738 741 730 718 718 720 721 723 721 720 719 721 723 726 729 733 738 744 750 756 761 767 772 774 777 779 783 786 789 792 796 801 805 809 813 817 821 825 829 833 836
743 742 744 746 749 742 738 740 733 727 729 725 725 725 724 725 723 723 723 722 722 722 721 720 720 721 723 727 730 734 737 742 749 757 761 765 770 772 775 779 783 786 789 793 798 802 806 809 813 816 819 824 828 832
738 737 738 742 740 736 730 731 730 733 733 732 733 731 729 726 724 724 723 721 721 720 720 720 720 720 722 725 729 733 736 738 741 744 749 754 758 763 768 773 778 782 786 790 795 799 804 807 811 815 818 821 824 828
731 733 734 734 734 730 729 733 733 732 732 731 732 730 724 723 721 719 719 718 717 718 719 720 720 720 721 722 726 730 735 737 739 743 746 750 754 758 763 767 771 775 780 785 789 794 798 803 806 810 813 816 818 821
727 727 728 731 730 730 732 731 729 730 729 730 725 727 726 724 721 714 712 713 714 715 716 717 717 718 720 722 724 726 727 731 735 739 744 747 751 755 759 764 768 772 775 780 784 788 793 796 800 803 806 809 812 814
722 722 724 724 727 727 727 729 726 724 723 723 720 721 720 718 714 712 710 709 710 711 712 714 716 717 718 721 723 726 728 730 733 737 741 745 749 752 754 758 762 767 771 773 777 782 786 790 794 797 801 804 806 809
Wind_Speed
11 9 9 9 9 9 9 10 9 9 8 6 5 6 8 9 10 7 5 10 4 2 5 4 4 5 5 5 4 6 5 3 4 5 3 3 3 3 4 8 7 6 5 8 11 14 15 4 10 16 18 23 28 23
8 7 8 7 6 6 6 5 7 6 5 3 1 2 3 5 5 7 6 6 6 5 2 1 5 6 5 1 2 5 1 5 4 3 2 1 3 3 7 5 4 5 9 10 9 11 24 27 27 27 26 25 25 26
7 7 7 7 5 2 2 5 5 5 5 4 3 2 2 2 2 4 5 4 4 3 1 2 6 8 12 10 6 2 2 1 4 1 1 1 5 3 5 7 13 8 12 11 18 14 26 27 29 28 26 27 25 24
9 9 8 6 4 4 5 6 4 3 3 3 3 2 1 1 1 2 2 3 1 2 1 0 1 2 3 12 19 13 2 4 4 2 1 3 3 5 5 10 14 12 13 15 20 25 32 26 27 27 28 26 25 23
9 8 7 7 6 7 8 7 5 5 6 5 4 3 3 3 3 4 5 6 5 1 2 3 6 4 6 10 14 14 14 6 2 2 2 4 3 5 8 7 8 4 9 8 15 25 17 28 32 36 31 29 25 22
10 6 6 8 8 8 6 5 6 6 5 3 2 2 3 3 6 5 1 3 8 6 1 2 3 2 1 6 8 10 13 8 2 2 3 3 7 3 4 4 8 5 14 18 10 19 22 29 28 31 30 24 18 13
8 7 6 6 7 5 6 9 7 5 2 1 1 1 2 6 6 2 2 1 8 9 1 2 2 3 6 6 4 4 8 2 3 2 4 4 5 4 3 5 5 13 16 18 15 18 16 20 24 26 22 17 7 9
9 10 8 6 8 10 10 7 3 2 3 3 4 4 6 10 5 1 3 9 11 3 1 2 2 2 7 3 3 4 3 3 4 3 2 3 2 3 5 8 9 13 16 16 18 18 16 21 21 20 21 14 9 4
11 12 10 9 9 8 6 5 2 1 3 2 2 5 3 2 4 3 6 7 6 3 1 3 2 1 5 2 3 3 3 3 4 4 3 3 4 6 4 6 9 11 10 16 18 17 16 17 16 18 20 18 16 14
12 12 11 9 9 8 8 6 3 0 1 3 4 2 1 3 4 9 3 2 1 3 3 3 3 3 4 4 3 4 2 2 3 5 2 4 5 5 3 3 4 8 9 13 15 19 21 17 15 16 17 15 15 15
13 13 12 11 11 9 8 7 6 2 1 2 3 1 2 5 3 1 2 2 3 3 4 3 9 6 3 4 2 3 2 2 3 3 3 3 4 5 3 4 4 6 9 10 10 11 11 9 10 12 15 20 21 22
11 12 12 12 11 10 9 9 8 5 3 2 2 1 3 2 2 4 4 3 5 4 4 4 4 4 2 2 2 3 2 2 4 3 2 3 3 5 2 3 5 7 8 10 11 11 13 14 14 15 17 19 20 21
13 13 14 13 13 13 13 12 12 9 5 4 4 2 3 4 8 6 9 5 4 4 6 6 5 5 4 4 3 4 5 4 0 3 3 3 5 4 3 2 4 5 8 9 12 13 14 16 16 16 19 20 24 23
11 12 13 15 15 15 14 13 15 11 4 2 4 6 5 5 6 6 7 6 4 4 8 8 5 3 2 5 2 3 2 3 3 3 4 3 6 5 4 3 4 5 7 9 11 12 14 15 15 16 17 17 22 25
12 14 15 16 16 16 15 14 16 12 5 4 4 6 8 7 4 2 5 3 4 7 9 3 2 3 3 3 3 3 4 4 5 4 1 5 7 7 6 4 5 5 7 8 9 11 13 14 15 17 16 17 20 22
10 11 16 18 18 18 19 19 17 11 5 4 6 4 5 4 6 3 4 6 6 8 5 2 3 3 4 3 5 6 3 5 2 3 4 6 8 7 7 7 7 7 8 9 9 11 12 12 14 16 16 17 18 18
9 7 10 18 21 19 17 15 10 6 5 6 6 7 8 6 5 5 6 6 14 7 4 3 6 5 3 3 4 5 4 2 2 4 4 7 9 9 10 10 8 8 8 9 10 11 12 12 13 15 16 14 16 16
7 8 11 16 20 18 7 15 7 6 9 8 9 9 7 7 3 2 5 6 7 5 5 4 4 4 4 4 4 4 5 2 2 3 5 7 11 12 11 11 10 9 9 10 10 11 11 11 11 13 15 15 16 16
9 7 6 8 13 7 4 8 7 4 9 8 9 7 7 7 7 4 4 12 6 8 4 4 4 4 6 4 6 2 4 5 4 5 6 11 12 12 11 11 12 11 11 12 11 9 9 9 11 12 13 12 12 12
13 12 10 8 8 5 4 3 10 6 6 8 10 10 11 7 4 6 7 7 7 3 4 5 6 7 4 4 3 2 4 6 7 6 7 8 12 13 13 14 12 13 12 11 11 11 12 11 10 10 10 11 12 12
11 11 11 11 6 8 4 3 6 5 8 8 7 12 7 7 10 7 7 9 6 3 4 5 7 7 9 4 3 5 8 13 7 6 9 8 16 15 14 13 14 14 13 12 12 11 10 10 11 11 12 10 11 12
10 12 8 10 6 5 5 7 4 3 5 7 11 10 5 7 7 9 8 7 7 10 9 10 9 8 8 8 9 12 9 13 9 9 10 15 11 14 16 17 16 15 14 14 13 14 12 13 13 13 13 13 13 13
10 13 6 6 7 7 5 6 6 4 6 4 7 9 9 10 9 6 6 8 8 9 12 14 20 20 15 12 10 12 13 15 12 12 15 16 17 16 17 17 17 17 15 14 14 14 14 14 15 15 15 15 15 15
8 10 6 5 8 4 4 6 5 5 5 6 3 9 11 9 8 8 13 12 8 9 12 17 18 9 8 9 8 13 16 17 14 13 16 18 17 17 18 18 17 16 16 17 16 16 16 16 17 16 17 17 16 17
5 7 5 6 4 5 4 5 10 9 8 8 8 4 3 1 4 8 11 10 10 10 11 14 13 11 10 10 11 14 18 21 18 12 18 20 18 16 16 17 17 17 18 20 19 19 18 17 17 17 18 18 18 18
7 10 11 7 6 5 6 5 6 9 9 8 6 4 2 3 3 4 5 9 9 10 9 10 11 11 11 14 9 11 20 21 18 15 18 24 24 22 18 16 16 18 21 21 24 23 21 20 19 19 18 18 19 20
7 8 6 5 5 5 5 6 8 10 9 5 4 5 3 3 4 3 3 3 3 6 14 23 20 15 13 15 16 15 18 25 25 19 16 24 23 22 22 22 20 20 22 23 26 27 25 23 21 21 19 18 20 20
2 5 8 9 8 8 10 5 6 9 8 6 8 11 4 5 4 0 1 4 6 6 3 6 12 15 13 15 18 18 17 20 18 14 13 16 17 19 21 21 17 22 26 29 27 28 27 26 23 22 21 20 19 20
4 4 5 5 5 7 7 4 6 4 1 4 7 10 9 4 2 2 4 7 7 3 3 3 4 10 11 12 16 18 25 28 23 13 16 10 10 15 25 22 20 20 24 28 27 25 25 25 24 24 23 20 18 19
10 8 6 3 4 6 6 5 5 2 1 2 1 2 2 4 4 7 8 5 5 5 5 5 9 11 10 13 13 14 22 26 26 25 12 13 18 22 30 26 25 24 25 27 28 24 24 21 20 17 16 16 16 18
4 8 7 8 7 7 5 1 2 1 2 2 1 3 4 3 4 7 10 10 9 6 7 7 9 9 13 14 15 13 10 24 25 23 20 19 24 27 32 32 31 30 28 29 30 29 27 23 21 20 19 19 20 20
8 11 9 8 7 4 1 3 4 3 2 2 3 3 2 2 4 3 6 13 10 10 10 10 10 10 15 13 16 15 11 25 31 27 24 19 16 21 26 32 31 32 31 30 29 30 29 26 24 23 23 23 23 23
6 7 7 8 4 4 4 4 4 5 5 5 4 4 3 3 5 1 5 16 14 11 12 13 10 6 12 13 15 16 11 11 18 26 27 21 17 16 27 35 34 34 33 33 33 32 31 28 24 23 22 21 22 22
Wind_Direction
133 135 134 131 127 122 126 125 132 138 134 110 72 44 32 28 39 65 63 46 47 83 140 188 147 164 165 197 187 128 151 188 175 203 221 213 236 229 270 256 275 255 263 260 266 273 276 268 291 278 294 311 309 304
143 154 158 159 154 147 140 152 169 161 152 140 126 38 36 64 60 54 76 57 38 62 59 300 248 229 262 257 187 180 8 146 145 179 213 257 225 248 276 285 192 256 232 291 280 276 300 304 291 285 282 273 266 270
152 161 166 170 168 178 174 166 154 168 199 218 218 185 139 111 45 65 72 73 47 39 355 312 244 223 244 223 216 198 214 134 159 2 110 271 250 263 260 256 285 287 278 266 289 275 291 303 308 303 302 295 291 272
163 165 173 188 181 176 163 169 179 181 200 219 202 197 202 211 224 196 138 151 91 90 24 217 248 226 232 215 219 216 97 127 106 165 142 234 245 220 263 287 292 286 301 284 290 295 316 304 312 309 301 293 287 289
180 176 187 194 191 163 161 168 205 193 175 184 214 230 218 212 206 213 219 242 212 22 346 295 302 293 272 223 210 206 209 213 167 143 196 233 235 252 249 271 267 254 332 315 306 315 311 302 305 308 305 297 287 279
182 193 186 172 169 167 163 175 188 167 159 172 219 223 206 221 178 147 96 191 217 193 282 322 15 192 78 176 177 191 204 217 179 178 221 236 244 241 256 258 271 355 331 324 304 311 306 296 302 318 314 301 272 284
184 170 165 173 182 176 147 146 155 142 117 80 51 47 116 148 150 70 65 63 166 163 166 266 244 132 114 110 109 162 187 149 182 216 218 242 236 207 254 257 270 334 330 316 318 330 312 320 320 320 343 351 338 277
183 170 156 139 147 153 147 151 171 89 21 20 61 85 115 165 169 183 150 117 144 127 218 272 270 231 182 162 136 163 154 172 199 237 234 223 212 216 252 246 333 338 329 315 337 332 310 311 330 343 348 356 2 339
185 181 177 172 174 169 168 181 204 40 19 73 139 139 124 153 167 220 188 201 202 239 255 197 238 144 168 134 95 159 188 198 195 224 233 199 214 227 255 327 327 339 331 307 324 322 336 344 350 5 16 33 43 55
191 189 188 193 194 188 188 187 207 300 20 171 138 90 252 225 170 133 129 155 228 191 222 241 224 207 207 169 146 149 187 240 243 209 181 219 255 244 105 35 343 333 332 333 342 346 347 348 1 23 32 43 56 66
203 199 202 205 206 206 207 200 214 203 100 167 187 191 239 160 151 140 179 228 174 236 204 218 221 206 185 195 156 211 189 228 249 143 249 238 248 159 65 41 20 356 354 356 351 339 335 351 25 41 50 52 63 70
180 193 208 214 213 213 214 207 207 183 188 212 223 218 198 194 198 189 197 186 221 240 174 188 196 196 138 148 171 197 236 205 250 120 246 250 131 117 71 37 28 17 14 22 22 12 22 38 50 68 71 73 71 78
210 212 212 214 220 221 217 208 205 198 236 282 218 213 188 184 219 210 187 193 211 194 173 160 156 152 156 203 192 192 215 224 146 223 239 269 136 126 105 89 73 41 40 46 45 39 43 50 51 67 81 84 88 82
219 224 220 218 219 214 207 206 201 193 173 237 201 210 219 190 234 207 195 189 169 155 160 164 151 180 159 176 171 231 190 205 234 234 234 185 158 148 136 115 114 77 65 64 64 61 57 57 61 64 74 86 94 93
227 229 223 217 216 210 206 202 195 185 193 233 224 222 214 235 246 236 198 156 155 151 156 135 142 173 152 181 197 221 204 230 229 237 171 130 155 151 151 139 128 115 101 86 83 80 81 80 75 72 75 84 90 96
236 237 232 222 215 216 216 202 198 189 211 235 231 243 235 247 227 216 189 187 156 154 142 194 154 182 180 208 191 213 233 230 210 208 126 148 163 154 151 151 141 130 116 112 106 103 98 94 95 93 88 84 85 91
231 235 250 220 210 216 210 187 174 197 213 219 219 224 255 268 260 219 190 188 164 155 177 180 185 186 147 207 216 196 223 271 137 145 153 161 166 160 158 156 150 144 135 127 121 115 111 112 113 108 99 98 99 97
227 260 212 199 194 209 209 193 182 210 217 227 226 230 218 242 245 238 204 174 169 180 178 195 143 191 208 210 214 218 213 156 155 154 158 161 154 160 166 157 156 154 145 135 132 132 129 126 120 114 116 117 112 110
229 244 246 226 193 200 217 197 194 232 220 227 217 241 240 244 221 252 201 189 193 179 156 169 204 214 218 218 248 166 179 184 176 177 167 170 164 159 159 154 154 155 150 149 146 143 138 135 134 137 137 140 132 132
232 227 221 236 208 192 246 206 186 226 224 219 220 218 224 238 218 191 202 191 179 179 192 201 208 207 216 231 237 218 172 162 147 162 181 177 174 165 169 166 167 162 157 151 143 141 138 136 141 146 148 147 143 140
227 208 204 205 197 218 278 248 186 213 211 230 226 216 218 222 231 209 199 193 187 216 227 221 231 211 211 197 203 171 177 173 185 190 186 186 185 182 178 178 169 169 170 169 165 161 161 156 154 151 147 144 142 141
202 193 184 194 208 240 243 232 270 197 205 214 208 218 227 216 217 216 213 201 216 215 215 229 233 225 217 209 205 204 194 199 191 181 183 171 177 186 185 182 178 180 182 180 175 169 164 158 155 153 152 148 145 146
191 179 180 201 209 216 241 194 226 216 210 219 204 206 219 222 220 175 213 214 222 215 214 223 230 228 231 222 191 191 192 186 193 189 180 185 188 186 185 187 187 182 180 181 175 168 163 161 157 155 156 152 152 152
198 179 188 214 206 221 196 199 218 228 225 216 276 215 228 215 196 208 235 227 209 202 209 217 216 207 199 193 201 202 194 193 198 188 186 185 187 189 189 187 188 190 187 175 172 167 164 163 163 162 163 162 164 165
190 196 196 216 234 195 218 195 198 209 226 247 239 281 318 208 215 215 226 227 214 202 206 212 210 209 213 215 212 206 190 187 190 188 190 191 187 179 182 185 188 189 181 172 173 171 169 169 171 173 172 174 173 174
208 199 190 205 190 194 204 216 213 208 211 221 248 250 170 206 261 251 236 227 212 203 196 191 196 202 213 216 201 195 194 190 189 194 191 191 188 182 178 179 181 191 191 187 175 174 175 176 177 178 180 182 180 175
199 198 193 223 207 199 215 227 216 209 220 220 212 208 234 255 250 270 323 7 295 219 207 202 196 198 207 199 200 197 185 184 188 196 190 187 188 192 188 185 193 192 188 187 187 182 177 178 180 182 183 185 188 187
274 201 180 197 218 231 229 237 222 213 218 227 204 203 259 214 234 235 75 9 324 325 285 202 203 211 206 194 179 166 160 164 166 156 155 175 186 191 195 202 198 193 192 195 196 196 193 187 183 183 184 187 189 192
216 202 175 183 202 224 222 238 222 225 292 232 222 216 208 235 307 323 344 316 301 288 258 184 156 166 159 165 173 169 162 159 157 163 173 178 181 199 205 206 200 195 198 196 198 199 199 200 198 195 192 188 191 189
218 222 230 187 204 222 222 210 251 20 341 343 253 241 241 255 258 258 262 262 248 239 253 227 177 164 158 157 153 157 176 179 182 177 176 189 194 191 196 196 196 194 194 196 196 194 199 195 191 184 176 177 180 185
196 194 210 224 240 251 268 303 280 250 244 266 233 271 278 304 291 259 237 237 229 214 189 184 186 185 167 161 164 162 181 196 195 193 194 198 195 194 193 194 193 191 191 193 195 194 188 185 188 188 189 191 193 193
196 209 210 215 223 223 208 254 283 273 265 264 279 236 248 272 273 246 232 202 194 200 203 192 184 192 189 179 184 184 195 199 196 195 196 196 194 201 202 199 198 194 191 195 198 199 197 192 189 192 197 200 200 202
201 186 209 213 207 216 210 211 241 260 237 239 241 233 243 257 258 337 263 217 218 204 187 192 189 184 185 187 193 197 194 192 206 209 208 207 203 206 201 198 199 199 196 196 199 202 204 201 201 203 203 204 205 207